M I D A S
Marine Information and Data Acquisition System
Tripno 2156 of the Zeeleeuw from 2011-08-02 06:40:21 to 2011-08-02 15:04:15
Back to CruiseResearch ActivitiesStationsMapUnderway DataData graphs

EquipmentUnitsComment
TimeDGPSUTC
LatitudeDGPSDM.mWGS84
LongitudeDGPSDM.mWGS84
HeadingGyrodeg 
SOGDGPSknotsSpeed over ground
COGDGPSdegCourse over ground
DepthEcho soundermeters200 kHz
Missing or incorrect values are displayed as -999
Navigation data collected by the RV Zeeleeuw from 2011-08-02 06:20:20 to 2011-08-02 16:17:02
                                                                                    Next 1000 lines
Time Latitude Longitude Heading SOG COG Depth
2011-08-02 06:20:30 51°13.639 2°56.028 124.3 0.1 213 6.7
2011-08-02 06:20:36 51°13.638 2°56.026 124.3 0.1 211 6.7
2011-08-02 06:20:40 51°13.636 2°56.024 124.4 -999 233 6.7
2011-08-02 06:20:45 51°13.636 2°56.023 124.5 0.1 236 6.7
2011-08-02 06:20:51 51°13.637 2°56.023 124.6 -999 292 6.7
2011-08-02 06:20:55 51°13.637 2°56.022 124.7 -999 21 6.7
2011-08-02 06:21:00 51°13.637 2°56.022 124.8 -999 12 6.7
2011-08-02 06:21:05 51°13.637 2°56.021 124.8 -999 14 6.7
2011-08-02 06:21:10 51°13.637 2°56.021 124.6 -999 328 6.7
2011-08-02 06:21:15 51°13.637 2°56.021 124.4 -999 316 6.7
2011-08-02 06:21:20 51°13.637 2°56.021 124.2 -999 334 6.7
2011-08-02 06:21:24 51°13.637 2°56.021 123.9 -999 230 6.7
2011-08-02 06:21:29 51°13.637 2°56.022 123.6 -999 87 6.7
2011-08-02 06:21:34 51°13.637 2°56.021 123.5 -999 155 6.7
2011-08-02 06:21:40 51°13.638 2°56.021 123.5 -999 91 6.7
2011-08-02 06:21:45 51°13.637 2°56.021 123.5 -999 129 6.6
2011-08-02 06:21:49 51°13.637 2°56.021 123.6 -999 158 6.6
2011-08-02 06:21:54 51°13.637 2°56.021 123.8 -999 192 6.6
2011-08-02 06:21:59 51°13.637 2°56.021 124.1 -999 70 6.6
2011-08-02 06:22:04 51°13.637 2°56.02 124.4 -999 72 6.7
2011-08-02 06:22:09 51°13.637 2°56.02 124.7 -999 294 6.6
2011-08-02 06:22:13 51°13.637 2°56.02 124.8 -999 13 6.7
2011-08-02 06:22:18 51°13.637 2°56.02 124.8 -999 276 6.7
2011-08-02 06:22:24 51°13.637 2°56.02 124.8 -999 18 6.7
2011-08-02 06:22:29 51°13.637 2°56.02 124.8 -999 293 6.7
2011-08-02 06:22:33 51°13.637 2°56.02 124.6 -999 321 6.7
2011-08-02 06:22:38 51°13.637 2°56.02 124.4 -999 11 6.7
2011-08-02 06:22:43 51°13.637 2°56.02 124.2 -999 25 6.7
2011-08-02 06:22:49 51°13.637 2°56.02 124.1 -999 327 6.7
2011-08-02 06:22:53 51°13.637 2°56.02 123.9 -999 340 6.7
2011-08-02 06:22:57 51°13.637 2°56.02 123.9 -999 7 6.7
2011-08-02 06:23:03 51°13.637 2°56.02 123.9 -999 28 6.7
2011-08-02 06:23:09 51°13.637 2°56.02 123.9 -999 356 6.7
2011-08-02 06:23:13 51°13.637 2°56.02 123.9 -999 354 6.7
2011-08-02 06:23:18 51°13.637 2°56.02 123.9 -999 29 6.6
2011-08-02 06:23:23 51°13.637 2°56.02 123.8 -999 24 6.6
2011-08-02 06:23:28 51°13.636 2°56.02 123.7 -999 339 6.6
2011-08-02 06:23:33 51°13.636 2°56.02 123.6 -999 66 6.6
2011-08-02 06:23:38 51°13.636 2°56.02 123.5 -999 210 6.6
2011-08-02 06:23:43 51°13.636 2°56.02 123.5 -999 145 6.6
2011-08-02 06:23:48 51°13.636 2°56.02 123.5 -999 99 6.6
2011-08-02 06:23:53 51°13.636 2°56.02 123.7 -999 199 6.6
2011-08-02 06:23:57 51°13.636 2°56.02 124 -999 244 6.6
2011-08-02 06:24:02 51°13.636 2°56.02 124.2 -999 344 6.6
2011-08-02 06:24:07 51°13.636 2°56.02 124.3 -999 145 6.6
2011-08-02 06:24:12 51°13.636 2°56.02 124.4 -999 61 6.5
2011-08-02 06:24:18 51°13.636 2°56.02 124.4 -999 28 6.6
2011-08-02 06:24:23 51°13.636 2°56.02 124.4 -999 246 6.6
2011-08-02 06:24:28 51°13.636 2°56.02 124.4 -999 325 6.6
2011-08-02 06:24:33 51°13.636 2°56.02 124.4 -999 56 6.6
2011-08-02 06:24:38 51°13.636 2°56.02 124.4 0.1 49 6.6
2011-08-02 06:24:43 51°13.636 2°56.02 124.4 -999 34 6.6
2011-08-02 06:24:48 51°13.636 2°56.02 124.4 -999 46 6.6
2011-08-02 06:24:53 51°13.636 2°56.02 124.3 -999 254 6.6
2011-08-02 06:24:58 51°13.636 2°56.02 124.2 -999 296 6.6
2011-08-02 06:25:02 51°13.636 2°56.02 124.2 -999 34 6.6
2011-08-02 06:25:08 51°13.636 2°56.02 124.2 -999 285 6.6
2011-08-02 06:25:13 51°13.636 2°56.02 124.2 -999 230 6.6
2011-08-02 06:25:19 51°13.636 2°56.02 124.1 -999 51 6.6
2011-08-02 06:25:23 51°13.636 2°56.02 124.1 -999 61 6.6
2011-08-02 06:25:28 51°13.636 2°56.02 124.1 -999 339 6.6
2011-08-02 06:25:33 51°13.636 2°56.02 124.1 -999 40 6.6
2011-08-02 06:25:38 51°13.636 2°56.02 124.1 -999 220 6.6
2011-08-02 06:25:43 51°13.636 2°56.02 124.1 -999 102 6.5
2011-08-02 06:25:47 51°13.636 2°56.02 124.1 -999 68 6.6
2011-08-02 06:25:53 51°13.636 2°56.02 124.1 -999 95 6.5
2011-08-02 06:25:58 51°13.636 2°56.02 124.1 -999 76 6.5
2011-08-02 06:26:03 51°13.636 2°56.02 124.2 -999 166 6.5
2011-08-02 06:26:07 51°13.636 2°56.02 124.3 -999 246 6.5
2011-08-02 06:26:13 51°13.636 2°56.02 124.4 -999 241 6.5
2011-08-02 06:26:18 51°13.636 2°56.02 124.7 -999 122 6.5
2011-08-02 06:26:23 51°13.636 2°56.019 124.8 -999 355 6.5
2011-08-02 06:26:28 51°13.636 2°56.019 124.9 -999 337 6.6
2011-08-02 06:26:33 51°13.636 2°56.019 124.8 -999 321 6.5
2011-08-02 06:26:38 51°13.636 2°56.019 124.8 -999 59 6.5
2011-08-02 06:26:43 51°13.636 2°56.019 124.8 -999 201 6.5
2011-08-02 06:26:48 51°13.636 2°56.019 124.8 -999 69 6.5
2011-08-02 06:26:53 51°13.636 2°56.019 124.6 -999 275 6.5
2011-08-02 06:26:58 51°13.636 2°56.019 124.6 -999 261 6.6
2011-08-02 06:27:03 51°13.636 2°56.019 124.5 -999 268 6.6
2011-08-02 06:27:08 51°13.636 2°56.019 124.4 -999 357 6.5
2011-08-02 06:27:12 51°13.636 2°56.019 124.4 -999 136 6.6
2011-08-02 06:27:18 51°13.636 2°56.019 124.4 -999 216 6.5
2011-08-02 06:27:23 51°13.636 2°56.019 124.4 -999 260 6.5
2011-08-02 06:27:28 51°13.636 2°56.019 124.5 -999 351 6.5
2011-08-02 06:27:32 51°13.636 2°56.019 124.5 -999 271 6.5
2011-08-02 06:27:37 51°13.636 2°56.019 124.7 -999 5 6.5
2011-08-02 06:27:42 51°13.636 2°56.019 124.7 -999 119 6.5
2011-08-02 06:27:48 51°13.636 2°56.019 124.8 -999 35 6.5
2011-08-02 06:27:53 51°13.636 2°56.019 124.8 -999 244 6.5
2011-08-02 06:27:58 51°13.636 2°56.019 124.8 -999 246 6.5
2011-08-02 06:28:03 51°13.636 2°56.019 124.8 -999 244 6.5
2011-08-02 06:28:08 51°13.636 2°56.019 124.8 -999 234 6.5
2011-08-02 06:28:13 51°13.636 2°56.019 124.8 -999 205 6.5
2011-08-02 06:28:18 51°13.636 2°56.019 124.7 -999 42 6.5
2011-08-02 06:28:23 51°13.636 2°56.019 124.7 -999 33 6.5
2011-08-02 06:28:28 51°13.636 2°56.019 124.7 -999 235 6.5
2011-08-02 06:28:33 51°13.636 2°56.019 124.7 -999 262 6.5
2011-08-02 06:28:38 51°13.636 2°56.019 124.8 -999 319 6.5
2011-08-02 06:28:43 51°13.636 2°56.019 124.9 -999 233 6.5
2011-08-02 06:28:48 51°13.635 2°56.02 124.9 -999 239 6.5
2011-08-02 06:28:53 51°13.635 2°56.02 124.9 -999 229 6.5
2011-08-02 06:28:57 51°13.635 2°56.021 124.9 -999 26 6.5
2011-08-02 06:29:03 51°13.636 2°56.021 124.9 -999 263 6.5
2011-08-02 06:29:08 51°13.636 2°56.02 124.8 -999 249 6.5
2011-08-02 06:29:13 51°13.636 2°56.02 124.8 -999 44 6.5
2011-08-02 06:29:17 51°13.637 2°56.019 124.8 -999 73 6.5
2011-08-02 06:29:23 51°13.637 2°56.019 124.8 -999 80 6.5
2011-08-02 06:29:28 51°13.636 2°56.019 124.8 -999 227 6.5
2011-08-02 06:29:33 51°13.636 2°56.019 124.8 -999 221 6.5
2011-08-02 06:29:37 51°13.636 2°56.019 124.8 -999 203 6.5
2011-08-02 06:29:42 51°13.636 2°56.019 124.8 -999 7 6.5
2011-08-02 06:29:48 51°13.636 2°56.019 124.8 -999 55 6.5
2011-08-02 06:29:53 51°13.636 2°56.019 124.8 -999 59 6.5
2011-08-02 06:29:58 51°13.636 2°56.019 124.8 -999 18 6.5
2011-08-02 06:30:02 51°13.636 2°56.019 124.8 -999 19 6.4
2011-08-02 06:30:07 51°13.635 2°56.019 124.8 -999 22 6.5
2011-08-02 06:30:13 51°13.635 2°56.019 124.8 -999 147 6.5
2011-08-02 06:30:17 51°13.635 2°56.019 124.8 -999 136 6.4
2011-08-02 06:30:23 51°13.635 2°56.019 124.8 -999 72 6.4
2011-08-02 06:30:28 51°13.635 2°56.019 124.8 -999 51 6.5
2011-08-02 06:30:33 51°13.635 2°56.019 124.8 -999 58 6.5
2011-08-02 06:30:38 51°13.635 2°56.019 124.8 -999 245 6.5
2011-08-02 06:30:43 51°13.635 2°56.019 124.8 -999 349 6.5
2011-08-02 06:30:48 51°13.635 2°56.019 124.8 -999 266 6.5
2011-08-02 06:30:53 51°13.635 2°56.019 124.8 -999 21 6.5
2011-08-02 06:30:58 51°13.635 2°56.019 124.8 -999 270 6.5
2011-08-02 06:31:03 51°13.635 2°56.019 124.8 -999 334 6.5
2011-08-02 06:31:09 51°13.634 2°56.019 124.8 -999 224 6.5
2011-08-02 06:31:13 51°13.634 2°56.019 124.8 -999 246 6.5
2011-08-02 06:31:18 51°13.634 2°56.019 124.8 -999 246 6.5
2011-08-02 06:31:23 51°13.634 2°56.019 124.8 -999 243 6.5
2011-08-02 06:31:28 51°13.634 2°56.019 124.8 -999 43 6.5
2011-08-02 06:31:33 51°13.634 2°56.019 124.8 -999 7 6.5
2011-08-02 06:31:38 51°13.634 2°56.019 124.8 -999 58 6.4
2011-08-02 06:31:42 51°13.634 2°56.019 124.8 -999 81 6.5
2011-08-02 06:31:48 51°13.634 2°56.02 124.8 -999 306 6.4
2011-08-02 06:31:53 51°13.634 2°56.02 124.8 -999 120 6.4
2011-08-02 06:31:58 51°13.634 2°56.02 124.9 -999 251 6.4
2011-08-02 06:32:02 51°13.634 2°56.02 124.9 -999 77 6.4
2011-08-02 06:32:08 51°13.634 2°56.02 124.9 -999 85 6.4
2011-08-02 06:32:12 51°13.634 2°56.02 124.9 -999 75 6.4
2011-08-02 06:32:18 51°13.634 2°56.02 124.9 -999 51 6.4
2011-08-02 06:32:22 51°13.634 2°56.02 124.9 -999 259 6.4
2011-08-02 06:32:27 51°13.634 2°56.02 124.9 -999 233 6.4
2011-08-02 06:32:32 51°13.634 2°56.02 124.9 -999 62 6.4
2011-08-02 06:32:38 51°13.634 2°56.02 124.9 -999 166 6.4
2011-08-02 06:32:42 51°13.634 2°56.02 124.9 -999 212 6.4
2011-08-02 06:32:47 51°13.634 2°56.02 124.9 -999 101 6.4
2011-08-02 06:32:53 51°13.634 2°56.02 124.9 -999 288 6.4
2011-08-02 06:32:57 51°13.634 2°56.02 124.9 -999 240 6.4
2011-08-02 06:33:02 51°13.634 2°56.02 124.9 -999 210 6.4
2011-08-02 06:33:08 51°13.634 2°56.02 124.9 -999 222 6.4
2011-08-02 06:33:13 51°13.634 2°56.02 124.9 -999 230 6.4
2011-08-02 06:33:18 51°13.634 2°56.02 124.9 -999 249 6.4
2011-08-02 06:33:23 51°13.634 2°56.02 124.9 -999 235 6.4
2011-08-02 06:33:28 51°13.634 2°56.02 124.9 -999 224 6.4
2011-08-02 06:33:33 51°13.634 2°56.02 124.9 -999 155 6.4
2011-08-02 06:33:38 51°13.634 2°56.02 124.9 -999 239 6.4
2011-08-02 06:33:43 51°13.634 2°56.019 124.9 -999 101 6.4
2011-08-02 06:33:48 51°13.634 2°56.019 125 -999 53 6.4
2011-08-02 06:33:53 51°13.634 2°56.019 125 -999 41 6.4
2011-08-02 06:33:58 51°13.635 2°56.019 125 -999 39 6.4
2011-08-02 06:34:03 51°13.635 2°56.019 125 -999 268 6.4
2011-08-02 06:34:08 51°13.635 2°56.019 125 -999 55 6.4
2011-08-02 06:34:13 51°13.635 2°56.019 125 -999 64 6.4
2011-08-02 06:34:18 51°13.635 2°56.019 125 -999 34 6.4
2011-08-02 06:34:23 51°13.635 2°56.019 125 -999 59 6.4
2011-08-02 06:34:28 51°13.635 2°56.019 125 -999 231 6.4
2011-08-02 06:34:33 51°13.635 2°56.019 125 -999 203 6.4
2011-08-02 06:34:38 51°13.635 2°56.019 125 -999 66 6.4
2011-08-02 06:34:43 51°13.635 2°56.019 125 -999 254 6.4
2011-08-02 06:34:47 51°13.635 2°56.019 125 -999 235 6.4
2011-08-02 06:34:52 51°13.635 2°56.019 125 -999 73 6.4
2011-08-02 06:34:58 51°13.635 2°56.019 125.1 -999 98 6.4
2011-08-02 06:35:03 51°13.635 2°56.019 125.1 -999 78 6.4
2011-08-02 06:35:08 51°13.635 2°56.019 125.1 -999 25 6.4
2011-08-02 06:35:13 51°13.635 2°56.019 125.1 -999 92 6.4
2011-08-02 06:35:18 51°13.635 2°56.019 125.1 -999 48 6.4
2011-08-02 06:35:23 51°13.635 2°56.019 125.1 -999 251 6.4
2011-08-02 06:35:28 51°13.635 2°56.019 125.1 -999 43 6.4
2011-08-02 06:35:33 51°13.635 2°56.019 125.1 -999 36 6.4
2011-08-02 06:35:38 51°13.635 2°56.019 125.1 -999 231 6.4
2011-08-02 06:35:43 51°13.635 2°56.019 125.1 -999 111 6.4
2011-08-02 06:35:48 51°13.635 2°56.019 125.1 -999 129 6.4
2011-08-02 06:35:52 51°13.635 2°56.019 125.1 -999 232 6.4
2011-08-02 06:35:58 51°13.635 2°56.019 125.1 -999 265 6.4
2011-08-02 06:36:03 51°13.635 2°56.019 125.1 -999 12 6.4
2011-08-02 06:36:08 51°13.636 2°56.019 125.1 -999 264 6.4
2011-08-02 06:36:12 51°13.636 2°56.019 125.1 -999 303 6.4
2011-08-02 06:36:18 51°13.636 2°56.019 125.1 -999 58 6.4
2011-08-02 06:36:23 51°13.636 2°56.019 125.1 -999 53 6.4
2011-08-02 06:36:28 51°13.636 2°56.019 125.2 -999 242 6.4
2011-08-02 06:36:32 51°13.636 2°56.019 125.2 -999 238 6.4
2011-08-02 06:36:38 51°13.636 2°56.019 125.2 -999 264 6.4
2011-08-02 06:36:43 51°13.636 2°56.019 125.2 -999 227 6.4
2011-08-02 06:36:48 51°13.636 2°56.019 125.2 -999 250 6.3
2011-08-02 06:36:52 51°13.636 2°56.019 125.2 0.1 68 6.4
2011-08-02 06:36:57 51°13.636 2°56.019 125.2 -999 239 6.4
2011-08-02 06:37:03 51°13.636 2°56.019 125.2 -999 348 6.3
2011-08-02 06:37:08 51°13.636 2°56.019 125.2 -999 54 6.3
2011-08-02 06:37:13 51°13.636 2°56.019 125.2 -999 67 6.4
2011-08-02 06:37:18 51°13.636 2°56.019 125.2 -999 219 6.4
2011-08-02 06:37:23 51°13.636 2°56.019 125.2 -999 193 6.4
2011-08-02 06:37:28 51°13.636 2°56.019 125.2 -999 62 6.4
2011-08-02 06:37:33 51°13.636 2°56.019 125.2 -999 200 6.4
2011-08-02 06:37:38 51°13.636 2°56.019 125.2 -999 247 6.4
2011-08-02 06:37:43 51°13.636 2°56.019 125.2 -999 224 6.4
2011-08-02 06:37:48 51°13.636 2°56.019 125.2 -999 85 6.4
2011-08-02 06:37:53 51°13.636 2°56.019 125.2 -999 275 6.4
2011-08-02 06:37:57 51°13.636 2°56.019 125.2 -999 227 6.4
2011-08-02 06:38:03 51°13.636 2°56.019 125.3 -999 13 6.4
2011-08-02 06:38:09 51°13.636 2°56.019 125.3 -999 62 6.4
2011-08-02 06:38:13 51°13.636 2°56.019 125.4 -999 97 6.4
2011-08-02 06:38:17 51°13.636 2°56.019 125.4 -999 42 6.4
2011-08-02 06:38:23 51°13.636 2°56.019 125.4 -999 16 6.4
2011-08-02 06:38:28 51°13.636 2°56.018 125.4 -999 244 6.4
2011-08-02 06:38:33 51°13.636 2°56.018 125.4 -999 260 6.4
2011-08-02 06:38:38 51°13.636 2°56.019 125.3 -999 29 6.3
2011-08-02 06:38:42 51°13.636 2°56.019 125.2 -999 28 6.4
2011-08-02 06:38:48 51°13.636 2°56.018 125.1 -999 239 6.3
2011-08-02 06:38:53 51°13.636 2°56.018 125.1 -999 56 6.3
2011-08-02 06:38:58 51°13.636 2°56.018 125.1 -999 344 6.3
2011-08-02 06:39:02 51°13.636 2°56.019 125.1 -999 53 6.3
2011-08-02 06:39:08 51°13.636 2°56.018 125.1 -999 26 6.3
2011-08-02 06:39:13 51°13.636 2°56.019 125.1 -999 52 6.3
2011-08-02 06:39:18 51°13.636 2°56.019 125.1 -999 52 6.3
2011-08-02 06:39:22 51°13.636 2°56.018 125.1 -999 50 6.3
2011-08-02 06:39:27 51°13.636 2°56.018 125.1 -999 47 6.3
2011-08-02 06:39:34 51°13.636 2°56.019 125.1 -999 27 6.3
2011-08-02 06:39:39 51°13.636 2°56.018 125.1 -999 17 6.4
2011-08-02 06:39:43 51°13.636 2°56.018 125.1 -999 334 6.3
2011-08-02 06:39:48 51°13.636 2°56.018 125 -999 256 6.4
2011-08-02 06:39:53 51°13.636 2°56.018 124.9 -999 272 6.3
2011-08-02 06:39:58 51°13.636 2°56.018 124.7 -999 337 6.4
2011-08-02 06:40:03 51°13.636 2°56.018 124.5 -999 6 6.4
2011-08-02 06:40:07 51°13.636 2°56.018 124.4 -999 329 6.4
2011-08-02 06:40:13 51°13.636 2°56.018 124.4 -999 259 6.4
2011-08-02 06:40:18 51°13.636 2°56.018 124.4 -999 333 6.4
2011-08-02 06:40:23 51°13.636 2°56.018 124.4 -999 252 6.4
2011-08-02 06:40:27 51°13.636 2°56.018 124.5 -999 354 6.4
2011-08-02 06:40:33 51°13.636 2°56.018 124.7 -999 267 6.4
2011-08-02 06:40:38 51°13.636 2°56.018 124.9 -999 4 6.3
2011-08-02 06:40:42 51°13.636 2°56.018 125 -999 195 6.4
2011-08-02 06:40:48 51°13.636 2°56.018 125.3 -999 196 6.4
2011-08-02 06:40:53 51°13.636 2°56.018 125.6 -999 135 6.4
2011-08-02 06:40:58 51°13.636 2°56.018 125.7 -999 210 6.4
2011-08-02 06:41:03 51°13.635 2°56.018 126 -999 224 6.4
2011-08-02 06:41:08 51°13.635 2°56.018 126.2 -999 322 6.3
2011-08-02 06:41:13 51°13.635 2°56.017 126.4 -999 278 6.4
2011-08-02 06:41:18 51°13.635 2°56.017 126.7 0.1 268 6.4
2011-08-02 06:41:23 51°13.635 2°56.017 126.8 0.1 281 6.4
2011-08-02 06:41:28 51°13.635 2°56.017 127.1 0.1 269 6.4
2011-08-02 06:41:32 51°13.635 2°56.017 127.3 0.1 286 6.4
2011-08-02 06:41:38 51°13.636 2°56.017 127.4 0.1 278 6.4
2011-08-02 06:41:43 51°13.636 2°56.016 127.6 0.1 281 6.5
2011-08-02 06:41:48 51°13.636 2°56.016 127.8 0.1 290 6.5
2011-08-02 06:41:52 51°13.636 2°56.016 127.9 0.1 289 6.6
2011-08-02 06:41:58 51°13.636 2°56.016 128.1 0.1 292 6.5
2011-08-02 06:42:03 51°13.636 2°56.016 128.4 0.1 285 6.5
2011-08-02 06:42:08 51°13.636 2°56.016 128.6 0.1 207 6.5
2011-08-02 06:42:12 51°13.636 2°56.015 129 0.1 207 6.5
2011-08-02 06:42:18 51°13.636 2°56.015 129.4 0.1 208 6.5
2011-08-02 06:42:23 51°13.636 2°56.015 129.9 0.1 226 6.5
2011-08-02 06:42:28 51°13.636 2°56.015 130.2 0.1 233 6.5
2011-08-02 06:42:33 51°13.636 2°56.015 130.7 0.1 222 6.6
2011-08-02 06:42:38 51°13.635 2°56.015 131.2 0.1 223 6.5
2011-08-02 06:42:43 51°13.635 2°56.015 131.6 0.1 224 6.5
2011-08-02 06:42:48 51°13.635 2°56.014 132.2 0.1 224 6.4
2011-08-02 06:42:53 51°13.635 2°56.014 132.6 0.1 228 6.4
2011-08-02 06:42:58 51°13.635 2°56.014 133 0.1 226 6.3
2011-08-02 06:43:03 51°13.635 2°56.014 133.4 0.1 214 6.4
2011-08-02 06:43:08 51°13.635 2°56.014 133.9 0.1 246 6.5
2011-08-02 06:43:13 51°13.635 2°56.014 134.4 0.1 227 6.4
2011-08-02 06:43:18 51°13.635 2°56.013 134.8 0.1 260 6.3
2011-08-02 06:43:23 51°13.635 2°56.013 135.1 0.1 240 6.3
2011-08-02 06:43:28 51°13.635 2°56.013 135.8 0.1 242 6.4
2011-08-02 06:43:33 51°13.635 2°56.013 136.2 0.1 232 6.4
2011-08-02 06:43:38 51°13.635 2°56.013 136.7 0.1 213 6.4
2011-08-02 06:43:43 51°13.635 2°56.013 137.2 0.1 227 6.4
2011-08-02 06:43:48 51°13.635 2°56.012 137.7 0.1 227 6.5
2011-08-02 06:43:53 51°13.634 2°56.012 138.1 0.1 200 6.5
2011-08-02 06:43:58 51°13.634 2°56.012 138.7 0.1 175 6.5
2011-08-02 06:44:03 51°13.634 2°56.013 139.2 0.2 171 6.6
2011-08-02 06:44:08 51°13.634 2°56.013 139.5 0.2 154 6.6
2011-08-02 06:44:13 51°13.633 2°56.013 139.9 0.4 151 6.6
2011-08-02 06:44:18 51°13.633 2°56.014 140.3 0.4 146 6.5
2011-08-02 06:44:23 51°13.632 2°56.015 140.6 0.6 147 6.5
2011-08-02 06:44:28 51°13.631 2°56.015 140.9 0.7 144 6.6
2011-08-02 06:44:33 51°13.63 2°56.017 140.9 0.9 143 6.6
2011-08-02 06:44:37 51°13.629 2°56.018 140.9 1.1 141 6.6
2011-08-02 06:44:43 51°13.628 2°56.02 140.6 1.3 140 6.6
2011-08-02 06:44:48 51°13.626 2°56.022 140.2 1.4 140 6.7
2011-08-02 06:44:54 51°13.624 2°56.025 140.1 1.6 140 7
2011-08-02 06:44:58 51°13.623 2°56.027 139.8 1.8 139 7.1
2011-08-02 06:45:03 51°13.62 2°56.03 139.8 2 138 7.3
2011-08-02 06:45:08 51°13.618 2°56.033 140.1 2.2 139 5.8
2011-08-02 06:45:13 51°13.616 2°56.037 140.5 2.3 139 8.4
2011-08-02 06:45:18 51°13.613 2°56.04 140.8 2.5 139 8.7
2011-08-02 06:45:22 51°13.611 2°56.043 140.8 2.6 139 9
2011-08-02 06:45:29 51°13.607 2°56.049 140.8 2.8 139 9.6
2011-08-02 06:45:32 51°13.605 2°56.052 140.8 2.8 139 9.9
2011-08-02 06:45:37 51°13.602 2°56.056 140.8 2.9 139 10.5
2011-08-02 06:45:42 51°13.599 2°56.06 140.8 3 139 10.7
2011-08-02 06:45:47 51°13.596 2°56.065 140.8 3 139 10.8
2011-08-02 06:45:53 51°13.592 2°56.07 140.5 3 139 10.7
2011-08-02 06:45:58 51°13.589 2°56.074 140.1 3 139 10.8
2011-08-02 06:46:03 51°13.586 2°56.079 139.4 3 139 10.8
2011-08-02 06:46:08 51°13.583 2°56.083 138.9 2.9 138 10.8
2011-08-02 06:46:13 51°13.58 2°56.087 138.5 2.9 138 10.8
2011-08-02 06:46:18 51°13.577 2°56.091 137.7 2.8 137 10.8
2011-08-02 06:46:23 51°13.574 2°56.095 137.2 2.7 136 10.8
2011-08-02 06:46:27 51°13.572 2°56.099 136.3 2.7 136 10.7
2011-08-02 06:46:33 51°13.569 2°56.103 135.6 2.6 136 10.8
2011-08-02 06:46:39 51°13.566 2°56.108 134.5 2.5 135 11
2011-08-02 06:46:43 51°13.564 2°56.111 133.6 2.5 134 11
2011-08-02 06:46:48 51°13.562 2°56.115 132.5 2.4 133 11.2
2011-08-02 06:46:52 51°13.56 2°56.118 131.5 2.4 132 11.2
2011-08-02 06:46:58 51°13.558 2°56.123 130.2 2.3 131 11.1
2011-08-02 06:47:03 51°13.556 2°56.127 129.3 2.3 130 11.1
2011-08-02 06:47:08 51°13.554 2°56.13 128 2.3 129 11.1
2011-08-02 06:47:12 51°13.552 2°56.133 127 2.2 128 11.1
2011-08-02 06:47:18 51°13.55 2°56.138 126.1 2.2 127 11
2011-08-02 06:47:23 51°13.548 2°56.142 125 2.1 127 11.1
2011-08-02 06:47:28 51°13.547 2°56.145 123.8 2.1 125 11
2011-08-02 06:47:32 51°13.545 2°56.148 122.8 2.1 124 10.8
2011-08-02 06:47:38 51°13.544 2°56.153 122 2 123 10.7
2011-08-02 06:47:43 51°13.542 2°56.157 121.1 2 121 10.7
2011-08-02 06:47:48 51°13.541 2°56.16 119.6 1.9 120 10.7
2011-08-02 06:47:53 51°13.54 2°56.164 118.3 1.9 117 10.7
2011-08-02 06:47:58 51°13.539 2°56.168 115.8 2 113 10.6
2011-08-02 06:48:03 51°13.538 2°56.172 113.6 2 111 10.6
2011-08-02 06:48:08 51°13.537 2°56.177 109.6 2 107 10.5
2011-08-02 06:48:13 51°13.536 2°56.181 106.5 2 103 10.5
2011-08-02 06:48:18 51°13.536 2°56.185 102.6 2 99 10.4
2011-08-02 06:48:23 51°13.536 2°56.19 98.8 2 96 10.3
2011-08-02 06:48:28 51°13.536 2°56.194 94.3 2 91 10.2
2011-08-02 06:48:33 51°13.536 2°56.198 91.4 1.9 88 10.2
2011-08-02 06:48:38 51°13.536 2°56.203 87.6 1.9 84 10.5
2011-08-02 06:48:43 51°13.537 2°56.207 84 1.9 80 10.1
2011-08-02 06:48:48 51°13.537 2°56.211 80.3 1.9 75 10.2
2011-08-02 06:48:52 51°13.538 2°56.214 76.8 1.9 72 10.4
2011-08-02 06:48:58 51°13.539 2°56.219 73.3 1.9 69 10.8
2011-08-02 06:49:04 51°13.54 2°56.224 70 1.9 66 10.6
2011-08-02 06:49:08 51°13.541 2°56.226 66.3 1.9 64 10.6
2011-08-02 06:49:12 51°13.542 2°56.229 63.4 1.8 60 -999
2011-08-02 06:49:18 51°13.544 2°56.233 61.1 1.7 60 10.5
2011-08-02 06:49:24 51°13.545 2°56.237 59.6 1.6 58 10
2011-08-02 06:49:29 51°13.546 2°56.24 58.4 1.5 58 9.8
2011-08-02 06:49:33 51°13.547 2°56.242 57.4 1.4 56 9.1
2011-08-02 06:49:38 51°13.548 2°56.244 56.3 1.1 54 9.3
2011-08-02 06:49:43 51°13.549 2°56.245 54.6 0.9 53 9.5
2011-08-02 06:49:49 51°13.55 2°56.247 52.9 0.6 53 9.4
2011-08-02 06:49:53 51°13.55 2°56.247 51.3 0.4 52 9.3
2011-08-02 06:49:58 51°13.549 2°56.247 50.1 0.1 209 9.3
2011-08-02 06:50:03 51°13.549 2°56.247 49.1 0.4 225 9.3
2011-08-02 06:50:08 51°13.548 2°56.246 48.1 0.8 227 9.5
2011-08-02 06:50:13 51°13.547 2°56.244 47.6 1 226 9.5
2011-08-02 06:50:18 51°13.546 2°56.242 47.2 1 225 9
2011-08-02 06:50:23 51°13.545 2°56.241 47.1 0.9 226 -999
2011-08-02 06:50:29 51°13.545 2°56.24 47.1 0.4 245 -999
2011-08-02 06:50:35 51°13.546 2°56.241 46.9 0.8 44 -999
2011-08-02 06:50:41 51°13.548 2°56.242 42.5 1 29 -999
2011-08-02 06:50:46 51°13.549 2°56.243 36.2 0.9 30 -999
2011-08-02 06:50:51 51°13.55 2°56.244 31.9 0.6 24 -999
2011-08-02 06:50:56 51°13.55 2°56.244 28.3 0.3 26 9.4
2011-08-02 06:51:01 51°13.551 2°56.244 25.3 0.2 12 10.2
2011-08-02 06:51:06 51°13.551 2°56.244 23.7 0.1 48 10.3
2011-08-02 06:51:11 51°13.55 2°56.244 22.2 0.1 239 10.3
2011-08-02 06:51:16 51°13.55 2°56.244 20.4 0.3 191 10.1
2011-08-02 06:51:21 51°13.549 2°56.243 18.8 0.4 204 9.7
2011-08-02 06:51:26 51°13.548 2°56.243 17.6 0.6 196 9.4
2011-08-02 06:51:31 51°13.547 2°56.243 16.5 0.9 199 9.8
2011-08-02 06:51:35 51°13.546 2°56.242 15.4 1 195 9.2
2011-08-02 06:51:41 51°13.544 2°56.241 14.5 1.1 197 9.2
2011-08-02 06:51:46 51°13.543 2°56.241 13.4 0.8 195 9.9
2011-08-02 06:51:51 51°13.542 2°56.24 12.6 0.6 203 -999
2011-08-02 06:51:56 51°13.542 2°56.24 11.7 0.1 34 -999
2011-08-02 06:52:01 51°13.543 2°56.24 9.6 0.4 331 -999
2011-08-02 06:52:06 51°13.544 2°56.24 5.1 0.7 359 -999
2011-08-02 06:52:11 51°13.545 2°56.24 1.9 0.8 354 -999
2011-08-02 06:52:16 51°13.546 2°56.239 357.2 0.6 354 -999
2011-08-02 06:52:21 51°13.546 2°56.239 353.1 0.1 7 -999
2011-08-02 06:52:26 51°13.546 2°56.24 350.8 0.3 153 9.1
2011-08-02 06:52:30 51°13.545 2°56.24 348.4 0.8 161 9.3
2011-08-02 06:52:36 51°13.543 2°56.241 346.3 1.2 157 -999
2011-08-02 06:52:41 51°13.541 2°56.243 344.1 1.6 157 9.9
2011-08-02 06:52:46 51°13.539 2°56.244 342.5 1.8 154 10.5
2011-08-02 06:52:50 51°13.537 2°56.245 341.2 2 155 5.9
2011-08-02 06:52:56 51°13.534 2°56.248 340.5 2 156 -999
2011-08-02 06:53:01 51°13.531 2°56.249 339.9 1.9 157 -999
2011-08-02 06:53:07 51°13.529 2°56.251 340 1.8 157 -999
2011-08-02 06:53:10 51°13.527 2°56.252 340.5 1.8 157 -999
2011-08-02 06:53:16 51°13.525 2°56.253 341 1.6 157 -999
2011-08-02 06:53:22 51°13.523 2°56.254 341.6 1.4 159 4.8
2011-08-02 06:53:27 51°13.522 2°56.254 341.8 0.5 166 -999
2011-08-02 06:53:31 51°13.523 2°56.254 340.9 0.2 315 9.1
2011-08-02 06:53:36 51°13.524 2°56.252 337.6 1 318 -999
2011-08-02 06:53:41 51°13.525 2°56.25 333.2 1.6 317 8.9
2011-08-02 06:53:47 51°13.528 2°56.246 325.5 2.1 312 -999
2011-08-02 06:53:51 51°13.529 2°56.242 316.9 2.5 308 -999
2011-08-02 06:53:56 51°13.532 2°56.237 310 2.9 303 -999
2011-08-02 06:54:02 51°13.534 2°56.23 305 3.1 300 -999
2011-08-02 06:54:07 51°13.536 2°56.223 300.6 3.4 298 -999
2011-08-02 06:54:11 51°13.538 2°56.217 298.4 3.7 296 10.1
2011-08-02 06:54:16 51°13.541 2°56.209 297.2 4 295 10.7
2011-08-02 06:54:21 51°13.543 2°56.2 295.9 4.4 292 10.7
2011-08-02 06:54:26 51°13.545 2°56.19 294.4 4.6 292 -999
2011-08-02 06:54:31 51°13.548 2°56.18 293.6 4.9 292 11.1
2011-08-02 06:54:35 51°13.55 2°56.172 293.4 5.2 292 10.3
2011-08-02 06:54:40 51°13.553 2°56.161 293.8 5.4 293 10.5
2011-08-02 06:54:45 51°13.556 2°56.149 294.4 5.6 293 10.5
2011-08-02 06:54:50 51°13.559 2°56.138 294.9 5.8 293 10.7
2011-08-02 06:54:55 51°13.562 2°56.126 295.4 5.9 294 10.9
2011-08-02 06:55:00 51°13.566 2°56.114 296 6 295 10.8
2011-08-02 06:55:05 51°13.57 2°56.101 297 6.2 297 10.7
2011-08-02 06:55:10 51°13.574 2°56.089 298.4 6.3 298 10.6
2011-08-02 06:55:15 51°13.578 2°56.077 300 6.4 299 10.3
2011-08-02 06:55:19 51°13.582 2°56.067 301.8 6.5 301 10.4
2011-08-02 06:55:24 51°13.587 2°56.055 303.1 6.6 302 -999
2011-08-02 06:55:29 51°13.592 2°56.042 303.8 6.7 302 10.7
2011-08-02 06:55:34 51°13.597 2°56.03 304.5 6.7 304 10.6
2011-08-02 06:55:39 51°13.602 2°56.018 306 6.8 305 -999
2011-08-02 06:55:44 51°13.608 2°56.005 306.9 6.8 305 -999
2011-08-02 06:55:49 51°13.613 2°55.993 307.1 6.9 305 10.5
2011-08-02 06:55:54 51°13.619 2°55.98 307.1 6.9 306 10.4
2011-08-02 06:55:59 51°13.624 2°55.968 307.4 7 305 10.4
2011-08-02 06:56:03 51°13.629 2°55.958 307.5 7 306 10.4
2011-08-02 06:56:09 51°13.635 2°55.942 307.1 7 304 10.3
2011-08-02 06:56:13 51°13.64 2°55.932 307 7.1 306 10.2
2011-08-02 06:56:18 51°13.646 2°55.919 307.5 7.1 306 9.8
2011-08-02 06:56:23 51°13.652 2°55.907 307.7 7.1 306 9.8
2011-08-02 06:56:28 51°13.657 2°55.894 307.8 7.1 306 9.7
2011-08-02 06:56:33 51°13.663 2°55.881 308.1 7.2 306 9.4
2011-08-02 06:56:38 51°13.669 2°55.868 308.4 7.2 306 9.1
2011-08-02 06:56:43 51°13.675 2°55.855 308.4 7.2 306 9
2011-08-02 06:56:49 51°13.682 2°55.839 308.4 7.3 306 -999
2011-08-02 06:56:54 51°13.688 2°55.826 308.4 7.4 306 -999
2011-08-02 06:56:59 51°13.694 2°55.813 308.2 7.4 306 9.3
2011-08-02 06:57:04 51°13.7 2°55.8 308.2 7.5 307 10.2
2011-08-02 06:57:09 51°13.707 2°55.786 308.7 7.5 307 11.2
2011-08-02 06:57:14 51°13.713 2°55.773 309.3 7.6 307 10.9
2011-08-02 06:57:19 51°13.719 2°55.76 310 7.6 308 10.5
2011-08-02 06:57:23 51°13.725 2°55.749 310.8 7.7 309 -999
2011-08-02 06:57:28 51°13.732 2°55.736 312.2 7.7 312 10.6
2011-08-02 06:57:33 51°13.739 2°55.724 314.1 7.7 314 10.6
2011-08-02 06:57:39 51°13.749 2°55.71 316.2 7.7 316 10.3
2011-08-02 06:57:43 51°13.755 2°55.701 318.2 7.7 317 10.3
2011-08-02 06:57:48 51°13.763 2°55.689 320 7.7 319 10.3
2011-08-02 06:57:53 51°13.772 2°55.679 321.9 7.8 321 10.5
2011-08-02 06:57:59 51°13.782 2°55.667 323.8 7.8 324 -999
2011-08-02 06:58:03 51°13.789 2°55.659 326.4 7.8 325 10.5
2011-08-02 06:58:09 51°13.8 2°55.648 328.6 7.7 328 10.5
2011-08-02 06:58:14 51°13.809 2°55.64 330.8 7.7 330 10.4
2011-08-02 06:58:19 51°13.819 2°55.632 333 7.7 332 -999
2011-08-02 06:58:25 51°13.83 2°55.623 335.2 7.7 335 -999
2011-08-02 06:58:31 51°13.842 2°55.615 337.6 7.7 337 -999
2011-08-02 06:58:35 51°13.85 2°55.609 339 7.7 337 -999
2011-08-02 06:58:40 51°13.86 2°55.603 339.7 7.8 337 -999
2011-08-02 06:58:46 51°13.872 2°55.595 339.8 7.8 337 10.3
2011-08-02 06:58:51 51°13.882 2°55.589 340.1 7.9 338 -999
2011-08-02 06:58:55 51°13.89 2°55.583 340.3 7.9 337 -999
2011-08-02 06:59:00 51°13.901 2°55.576 339.9 8.1 338 -999
2011-08-02 06:59:05 51°13.911 2°55.569 340 8.1 338 10.4
2011-08-02 06:59:11 51°13.924 2°55.561 340.5 8.2 338 10.4
2011-08-02 06:59:15 51°13.932 2°55.555 340.5 8.2 338 10.4
2011-08-02 06:59:20 51°13.943 2°55.548 340.5 8.3 338 10.4
2011-08-02 06:59:25 51°13.954 2°55.541 340.6 8.4 337 -999
2011-08-02 06:59:31 51°13.967 2°55.533 340.2 8.4 337 -999
2011-08-02 06:59:35 51°13.975 2°55.527 339.9 8.4 338 10.3
2011-08-02 06:59:41 51°13.988 2°55.519 340.2 8.5 338 -999
2011-08-02 06:59:46 51°13.999 2°55.511 340.7 8.5 337 10.3
2011-08-02 06:59:51 51°14.01 2°55.504 340.5 8.6 337 10.3
2011-08-02 06:59:55 51°14.019 2°55.498 339.8 8.6 337 10.3
2011-08-02 07:00:00 51°14.03 2°55.491 339.5 8.6 337 10.3
2011-08-02 07:00:05 51°14.041 2°55.484 339.5 8.6 337 10.3
2011-08-02 07:00:10 51°14.052 2°55.476 339.8 8.7 337 10.3
2011-08-02 07:00:15 51°14.063 2°55.469 340.1 8.7 338 10.3
2011-08-02 07:00:19 51°14.072 2°55.463 340.1 8.7 337 10.3
2011-08-02 07:00:25 51°14.085 2°55.454 339.8 8.6 337 10.3
2011-08-02 07:00:30 51°14.096 2°55.446 339.6 8.7 336 10.3
2011-08-02 07:00:35 51°14.107 2°55.437 339 8.7 335 10.3
2011-08-02 07:00:39 51°14.116 2°55.431 337.8 8.7 333 -999
2011-08-02 07:00:44 51°14.127 2°55.422 336.2 8.7 332 10.2
2011-08-02 07:00:50 51°14.139 2°55.411 334.7 8.7 332 10.2
2011-08-02 07:00:55 51°14.15 2°55.402 334 8.7 332 10.2
2011-08-02 07:00:59 51°14.159 2°55.395 334.7 8.7 332 10.2
2011-08-02 07:01:04 51°14.169 2°55.385 334.7 8.7 332 -999
2011-08-02 07:01:10 51°14.182 2°55.374 334.7 8.8 332 10.2
2011-08-02 07:01:14 51°14.191 2°55.367 334.3 8.8 331 10.3
2011-08-02 07:01:19 51°14.202 2°55.357 333.9 8.9 332 10.3
2011-08-02 07:01:24 51°14.213 2°55.347 333.6 9 331 10.2
2011-08-02 07:01:29 51°14.223 2°55.338 333.2 9.1 331 10.2
2011-08-02 07:01:34 51°14.235 2°55.328 333.2 9.2 331 -999
2011-08-02 07:01:39 51°14.246 2°55.318 333.3 9.3 331 10.2
2011-08-02 07:01:44 51°14.258 2°55.307 333.5 9.5 331 10.2
2011-08-02 07:01:49 51°14.269 2°55.297 333.4 9.7 330 10.3
2011-08-02 07:01:55 51°14.283 2°55.284 332.2 9.8 329 4.8
2011-08-02 07:01:59 51°14.293 2°55.275 331.5 9.9 329 9.9
2011-08-02 07:02:04 51°14.305 2°55.263 331.6 10 329 -999
2011-08-02 07:02:10 51°14.319 2°55.249 331.6 10.2 328 -999
2011-08-02 07:02:15 51°14.331 2°55.238 331.1 10.3 329 -999
2011-08-02 07:02:20 51°14.344 2°55.226 331.6 10.4 330 4.8
2011-08-02 07:02:26 51°14.359 2°55.212 332 10.5 330 4.9
2011-08-02 07:02:31 51°14.371 2°55.2 332.3 10.5 329 4.9
2011-08-02 07:02:35 51°14.381 2°55.191 332.1 10.6 329 -999
2011-08-02 07:02:40 51°14.394 2°55.178 331.4 10.6 327 4.8
2011-08-02 07:02:46 51°14.409 2°55.162 330.3 10.7 326 10
2011-08-02 07:02:51 51°14.421 2°55.149 329.2 10.8 327 -999
2011-08-02 07:02:55 51°14.431 2°55.139 329.2 10.8 327 -999
2011-08-02 07:03:00 51°14.444 2°55.125 329.4 10.9 326 10.2
2011-08-02 07:03:05 51°14.456 2°55.111 328.9 11 325 10.1
2011-08-02 07:03:11 51°14.472 2°55.094 328.2 11.2 325 10.3
2011-08-02 07:03:15 51°14.482 2°55.082 327.6 11.3 325 9.8
2011-08-02 07:03:20 51°14.495 2°55.068 327.7 11.4 325 10.5
2011-08-02 07:03:24 51°14.505 2°55.055 327.8 11.6 323 10.8
2011-08-02 07:03:30 51°14.521 2°55.037 326.7 11.7 323 10.7
2011-08-02 07:03:34 51°14.531 2°55.024 326.3 11.9 321 10.3
2011-08-02 07:03:39 51°14.543 2°55.006 325.5 12.1 317 10.9
2011-08-02 07:03:43 51°14.553 2°54.99 323.8 12.3 314 11
2011-08-02 07:03:48 51°14.565 2°54.97 321.8 12.4 314 11
2011-08-02 07:03:53 51°14.577 2°54.951 322 12.5 316 10.8
2011-08-02 07:03:58 51°14.59 2°54.932 323.9 12.5 318 10.7
2011-08-02 07:04:03 51°14.603 2°54.914 325.9 12.6 318 10.8
2011-08-02 07:04:07 51°14.613 2°54.899 327.3 12.6 320 10.8
2011-08-02 07:04:12 51°14.627 2°54.881 328.4 12.6 320 10.5
2011-08-02 07:04:17 51°14.64 2°54.863 328.6 12.6 321 10.3
2011-08-02 07:04:22 51°14.654 2°54.846 329.9 12.6 322 10.5
2011-08-02 07:04:27 51°14.668 2°54.829 330.8 12.6 322 10.6
2011-08-02 07:04:32 51°14.682 2°54.812 331.1 12.7 322 10.5
2011-08-02 07:04:38 51°14.698 2°54.791 330.3 12.7 322 10.4
2011-08-02 07:04:42 51°14.71 2°54.777 330.8 12.7 323 10.4
2011-08-02 07:04:47 51°14.724 2°54.761 331.6 12.7 323 10.5
2011-08-02 07:04:52 51°14.738 2°54.744 331.8 12.7 323 10.3
2011-08-02 07:04:57 51°14.752 2°54.728 333.2 12.6 326 10.5
2011-08-02 07:05:02 51°14.767 2°54.712 334.2 12.6 325 10.7
2011-08-02 07:05:07 51°14.781 2°54.696 334.2 12.6 325 10.5
2011-08-02 07:05:12 51°14.796 2°54.681 334.8 12.6 326 10.7
2011-08-02 07:05:17 51°14.81 2°54.665 334.7 12.6 326 10.8
2011-08-02 07:05:22 51°14.825 2°54.65 334.7 12.7 326 10.7
2011-08-02 07:05:27 51°14.839 2°54.633 334.7 12.7 325 10.7
2011-08-02 07:05:32 51°14.853 2°54.617 333.7 12.7 325 10.7
2011-08-02 07:05:37 51°14.868 2°54.6 332.2 12.8 323 10.8
2011-08-02 07:05:42 51°14.882 2°54.583 331.6 12.8 323 10.7
2011-08-02 07:05:47 51°14.895 2°54.565 330.2 12.8 321 10.7
2011-08-02 07:05:52 51°14.909 2°54.547 328.5 12.8 320 10.7
2011-08-02 07:05:57 51°14.923 2°54.528 327.4 12.8 319 10.6
2011-08-02 07:06:02 51°14.936 2°54.51 326.9 12.8 319 10.7
2011-08-02 07:06:07 51°14.949 2°54.491 325.6 12.9 317 10.6
2011-08-02 07:06:12 51°14.962 2°54.472 324.2 12.8 318 10.7
2011-08-02 07:06:18 51°14.978 2°54.449 324.8 12.7 320 10.6
2011-08-02 07:06:22 51°14.989 2°54.435 326.1 12.7 320 10.5
2011-08-02 07:06:27 51°15.003 2°54.417 326.2 12.7 319 10.5
2011-08-02 07:06:32 51°15.016 2°54.399 326.7 12.6 320 10.4
2011-08-02 07:06:38 51°15.032 2°54.376 326 12.7 318 10.5
2011-08-02 07:06:43 51°15.044 2°54.356 324.4 12.8 316 10.4
2011-08-02 07:06:47 51°15.054 2°54.341 322.3 12.7 315 10.4
2011-08-02 07:06:52 51°15.067 2°54.321 321.7 12.7 317 10.4
2011-08-02 07:06:57 51°15.08 2°54.303 322.4 12.6 317 10.4
2011-08-02 07:07:03 51°15.096 2°54.28 323.6 12.6 318 10.5
2011-08-02 07:07:07 51°15.106 2°54.265 323.8 12.6 316 10.3
2011-08-02 07:07:12 51°15.118 2°54.246 322.9 12.6 317 10.3
2011-08-02 07:07:17 51°15.131 2°54.226 322.3 12.6 316 10.3
2011-08-02 07:07:23 51°15.147 2°54.204 323 12.5 319 10.5
2011-08-02 07:07:27 51°15.157 2°54.19 324.9 12.5 320 10.1
2011-08-02 07:07:32 51°15.171 2°54.174 327.5 12.4 323 10.2
2011-08-02 07:07:37 51°15.185 2°54.157 329.8 12.4 323 10.3
2011-08-02 07:07:42 51°15.199 2°54.141 330.3 12.4 324 10.4
2011-08-02 07:07:47 51°15.213 2°54.125 331.1 12.5 325 10.6
2011-08-02 07:07:52 51°15.228 2°54.109 331.9 12.5 325 10.6
2011-08-02 07:07:57 51°15.242 2°54.094 332.8 12.5 326 10.5
2011-08-02 07:08:02 51°15.256 2°54.078 333 12.5 326 10.6
2011-08-02 07:08:07 51°15.271 2°54.063 333 12.5 326 10.9
2011-08-02 07:08:12 51°15.285 2°54.047 332.6 12.6 324 10.7
2011-08-02 07:08:17 51°15.299 2°54.031 331.8 12.6 324 10.6
2011-08-02 07:08:22 51°15.313 2°54.014 331.4 12.6 324 10.6
2011-08-02 07:08:27 51°15.327 2°53.997 330.3 12.6 322 10.6
2011-08-02 07:08:32 51°15.341 2°53.979 328.9 12.7 320 10.7
2011-08-02 07:08:38 51°15.357 2°53.957 327 12.7 318 10.7
2011-08-02 07:08:42 51°15.367 2°53.942 325.6 12.7 318 10.7
2011-08-02 07:08:47 51°15.38 2°53.923 324.6 12.7 317 10.7
2011-08-02 07:08:52 51°15.393 2°53.905 324.9 12.7 319 10.7
2011-08-02 07:08:58 51°15.409 2°53.883 326.3 12.6 319 10.8
2011-08-02 07:09:03 51°15.423 2°53.865 327 12.6 321 10.7
2011-08-02 07:09:07 51°15.434 2°53.852 328.3 12.6 322 10.6
2011-08-02 07:09:12 51°15.448 2°53.835 329.6 12.6 323 10.7
2011-08-02 07:09:17 51°15.462 2°53.818 330.9 12.6 324 10.7
2011-08-02 07:09:23 51°15.479 2°53.799 332 12.6 325 10.6
2011-08-02 07:09:27 51°15.491 2°53.787 333.3 12.7 326 10.7
2011-08-02 07:09:32 51°15.506 2°53.771 334 12.7 326 10.4
2011-08-02 07:09:37 51°15.52 2°53.756 334.3 12.7 326 10.7
2011-08-02 07:09:43 51°15.538 2°53.737 334.7 12.7 327 10.5
2011-08-02 07:09:47 51°15.549 2°53.725 334.7 12.7 326 10.5
2011-08-02 07:09:52 51°15.564 2°53.709 334.7 12.7 326 10.7
2011-08-02 07:09:57 51°15.579 2°53.694 334.7 12.7 326 10.7
2011-08-02 07:10:02 51°15.594 2°53.678 334.6 12.7 326 10.7
2011-08-02 07:10:07 51°15.608 2°53.663 334.4 12.7 326 10.7
2011-08-02 07:10:12 51°15.623 2°53.647 334.3 12.7 326 10.7
2011-08-02 07:10:17 51°15.637 2°53.631 334 12.8 325 10.9
2011-08-02 07:10:22 51°15.652 2°53.615 333.7 12.8 326 10.8
2011-08-02 07:10:27 51°15.666 2°53.599 333.6 12.7 325 10.9
2011-08-02 07:10:32 51°15.681 2°53.583 333.4 12.8 325 10.9
2011-08-02 07:10:37 51°15.695 2°53.565 331.9 12.8 323 11.2
2011-08-02 07:10:42 51°15.709 2°53.548 330.9 12.8 323 11.1
2011-08-02 07:10:47 51°15.723 2°53.531 330.7 12.8 322 11
2011-08-02 07:10:52 51°15.737 2°53.514 330.6 12.8 323 11.2
2011-08-02 07:10:57 51°15.751 2°53.496 331 12.8 323 11.2
2011-08-02 07:11:02 51°15.766 2°53.48 331.3 12.8 324 10.9
2011-08-02 07:11:07 51°15.78 2°53.464 332 12.8 325 11.2
2011-08-02 07:11:12 51°15.795 2°53.448 333.6 12.7 327 11.2
2011-08-02 07:11:18 51°15.813 2°53.43 335.1 12.7 328 11.2
2011-08-02 07:11:22 51°15.825 2°53.419 336.3 12.7 329 11.3
2011-08-02 07:11:27 51°15.84 2°53.405 337.6 12.7 330 11.4
2011-08-02 07:11:32 51°15.856 2°53.391 338.7 12.7 331 11.4
2011-08-02 07:11:37 51°15.871 2°53.378 339.9 12.7 332 11.4
2011-08-02 07:11:42 51°15.887 2°53.365 340.7 12.7 332 11.5
2011-08-02 07:11:47 51°15.903 2°53.352 341.1 12.7 333 11.5
2011-08-02 07:11:52 51°15.918 2°53.34 341.3 12.7 333 11.3
2011-08-02 07:11:57 51°15.934 2°53.327 341.4 12.6 333 11.3
2011-08-02 07:12:02 51°15.949 2°53.314 341.6 12.6 332 11.4
2011-08-02 07:12:07 51°15.965 2°53.301 341.5 12.6 332 11.4
2011-08-02 07:12:12 51°15.98 2°53.288 341.2 12.6 332 11.5
2011-08-02 07:12:17 51°15.996 2°53.274 340.9 12.7 331 11.5
2011-08-02 07:12:22 51°16.011 2°53.26 340.3 12.6 330 11.5
2011-08-02 07:12:27 51°16.026 2°53.246 338.6 12.6 329 11.5
2011-08-02 07:12:32 51°16.04 2°53.231 337.2 12.7 327 10.8
2011-08-02 07:12:38 51°16.058 2°53.212 335.5 12.6 326 11
2011-08-02 07:12:42 51°16.07 2°53.2 335.2 12.6 327 11.2
2011-08-02 07:12:47 51°16.085 2°53.185 335.9 12.6 328 11.4
2011-08-02 07:12:52 51°16.099 2°53.17 336.5 12.6 328 11.6
2011-08-02 07:12:57 51°16.114 2°53.156 336.9 12.6 329 11.5
2011-08-02 07:13:02 51°16.13 2°53.142 337.4 12.5 330 11.1
2011-08-02 07:13:07 51°16.145 2°53.128 337.7 12.6 330 11
2011-08-02 07:13:12 51°16.16 2°53.113 337.5 12.6 329 11.2
2011-08-02 07:13:17 51°16.175 2°53.099 337.1 12.6 329 10.9
2011-08-02 07:13:22 51°16.19 2°53.084 336.9 12.7 328 11
2011-08-02 07:13:27 51°16.205 2°53.069 336.4 12.7 328 10.9
2011-08-02 07:13:32 51°16.22 2°53.055 336.3 12.7 329 10.9
2011-08-02 07:13:37 51°16.235 2°53.04 337.6 12.7 330 11
2011-08-02 07:13:42 51°16.25 2°53.027 338.3 12.6 331 11
2011-08-02 07:13:47 51°16.266 2°53.014 339.7 12.6 332 11
2011-08-02 07:13:52 51°16.281 2°53.001 341.5 12.6 334 11
2011-08-02 07:13:57 51°16.297 2°52.99 343.6 12.6 336 11.1
2011-08-02 07:14:02 51°16.313 2°52.979 344.7 12.5 337 11
2011-08-02 07:14:07 51°16.329 2°52.969 345.7 12.5 338 11
2011-08-02 07:14:12 51°16.345 2°52.958 346.3 12.5 338 11.1
2011-08-02 07:14:17 51°16.362 2°52.948 346.7 12.5 338 11
2011-08-02 07:14:23 51°16.381 2°52.935 346.8 12.5 338 10.9
2011-08-02 07:14:27 51°16.394 2°52.927 346.7 12.6 338 11
2011-08-02 07:14:32 51°16.41 2°52.916 346.1 12.6 337 10.9
2011-08-02 07:14:37 51°16.426 2°52.905 345.7 12.6 337 10.8
2011-08-02 07:14:42 51°16.442 2°52.894 345.3 12.6 336 10.8
2011-08-02 07:14:47 51°16.458 2°52.882 344.4 12.6 335 10.9
2011-08-02 07:14:52 51°16.473 2°52.869 343.1 12.7 333 10.8
2011-08-02 07:14:57 51°16.489 2°52.856 341.3 12.7 332 10.8
2011-08-02 07:15:02 51°16.504 2°52.843 340.1 12.6 332 10.6
2011-08-02 07:15:07 51°16.52 2°52.83 340.1 12.6 332 10.7
2011-08-02 07:15:12 51°16.535 2°52.817 341 12.6 333 10.5
2011-08-02 07:15:17 51°16.551 2°52.805 341.5 12.6 334 10.6
2011-08-02 07:15:22 51°16.567 2°52.793 342.1 12.6 336 10.5
2011-08-02 07:15:27 51°16.583 2°52.782 343.5 12.6 336 10.4
2011-08-02 07:15:32 51°16.599 2°52.771 345 12.5 338 10.3
2011-08-02 07:15:37 51°16.615 2°52.762 346.9 12.5 339 10.3
2011-08-02 07:15:42 51°16.631 2°52.752 347.6 12.5 340 10.1
2011-08-02 07:15:47 51°16.647 2°52.743 348.3 12.5 340 10
2011-08-02 07:15:52 51°16.664 2°52.734 348.8 12.4 341 9.9
2011-08-02 07:15:57 51°16.68 2°52.725 349.3 12.4 341 9.8
2011-08-02 07:16:02 51°16.696 2°52.716 349.6 12.4 341 9.7
2011-08-02 07:16:07 51°16.713 2°52.707 349.6 12.4 341 9.4
2011-08-02 07:16:12 51°16.729 2°52.698 349.2 12.4 341 9
2011-08-02 07:16:17 51°16.745 2°52.689 348.6 12.4 341 8.8
2011-08-02 07:16:23 51°16.764 2°52.678 348.2 12.3 340 8.7
2011-08-02 07:16:27 51°16.777 2°52.67 347.6 12.2 339 8.7
2011-08-02 07:16:32 51°16.792 2°52.66 346.4 12.3 337 8.7
2011-08-02 07:16:37 51°16.808 2°52.649 344.1 12.3 336 8.7
2011-08-02 07:16:42 51°16.824 2°52.638 343 12.3 337 8.6
2011-08-02 07:16:47 51°16.839 2°52.628 343.5 12.3 338 8.6
2011-08-02 07:16:52 51°16.855 2°52.618 344.4 12.2 339 8.5
2011-08-02 07:16:57 51°16.871 2°52.61 346.1 12.2 342 8.6
2011-08-02 07:17:02 51°16.887 2°52.603 349.2 12.1 347 8.7
2011-08-02 07:17:07 51°16.904 2°52.598 353.6 12.1 349 8.7
2011-08-02 07:17:12 51°16.92 2°52.594 356.5 12 351 8.7
2011-08-02 07:17:18 51°16.94 2°52.589 357.9 12.1 351 8.7
2011-08-02 07:17:22 51°16.954 2°52.586 358.8 12.1 352 8.8
2011-08-02 07:17:27 51°16.97 2°52.582 359.3 12.1 352 8.7
2011-08-02 07:17:32 51°16.987 2°52.58 359.7 12 354 8.7
2011-08-02 07:17:38 51°17.007 2°52.576 0.1 12.1 353 8.6
2011-08-02 07:17:42 51°17.02 2°52.574 0.5 12 354 8.5
2011-08-02 07:17:47 51°17.037 2°52.57 0.7 12 353 8.5
2011-08-02 07:17:52 51°17.053 2°52.567 0.6 12 353 8.5
2011-08-02 07:17:58 51°17.073 2°52.563 -999 12 352 8.5
2011-08-02 07:18:02 51°17.086 2°52.56 359.6 12 352 8.5
2011-08-02 07:18:07 51°17.103 2°52.556 359.1 12.1 352 8.5
2011-08-02 07:18:12 51°17.119 2°52.552 358.8 12 351 8.5
2011-08-02 07:18:17 51°17.136 2°52.548 358.5 12.1 351 8.6
2011-08-02 07:18:22 51°17.152 2°52.544 358.4 12.1 352 8.6
2011-08-02 07:18:27 51°17.169 2°52.54 358.6 12.1 352 8.8
2011-08-02 07:18:32 51°17.186 2°52.537 358.7 12.1 352 8.8
2011-08-02 07:18:37 51°17.202 2°52.533 359 12.1 353 8.8
2011-08-02 07:18:42 51°17.219 2°52.53 359.4 12.1 352 8.9
2011-08-02 07:18:47 51°17.236 2°52.526 359.2 12.1 352 8.7
2011-08-02 07:18:52 51°17.252 2°52.522 358.6 12.1 351 8.8
2011-08-02 07:18:57 51°17.269 2°52.517 358 12.2 350 8.9
2011-08-02 07:19:02 51°17.286 2°52.512 357.3 12.2 350 9
2011-08-02 07:19:07 51°17.302 2°52.508 357.1 12.2 350 9
2011-08-02 07:19:12 51°17.319 2°52.503 356.6 12.2 349 9.1
2011-08-02 07:19:17 51°17.335 2°52.498 356.6 12.2 349 9
2011-08-02 07:19:22 51°17.352 2°52.493 356.6 12.2 349 9.1
2011-08-02 07:19:27 51°17.369 2°52.488 356.6 12.2 349 9.1
2011-08-02 07:19:32 51°17.385 2°52.482 356.3 12.2 349 9.2
2011-08-02 07:19:37 51°17.402 2°52.477 356.3 12.2 349 9.1
2011-08-02 07:19:42 51°17.418 2°52.472 356.4 12.2 349 9.1
2011-08-02 07:19:47 51°17.435 2°52.467 356.5 12.2 349 9.1
2011-08-02 07:19:52 51°17.452 2°52.462 356.5 12.2 349 9.2
2011-08-02 07:19:57 51°17.468 2°52.456 356 12.2 348 9.2
2011-08-02 07:20:02 51°17.485 2°52.45 355.6 12.2 348 9.2
2011-08-02 07:20:07 51°17.501 2°52.444 355 12.2 347 9.2
2011-08-02 07:20:12 51°17.518 2°52.437 354.1 12.3 346 9.2
2011-08-02 07:20:17 51°17.534 2°52.431 353.3 12.3 345 9.2
2011-08-02 07:20:22 51°17.551 2°52.424 353.2 12.3 345 9.3
2011-08-02 07:20:27 51°17.567 2°52.416 352.4 12.4 344 9.2
2011-08-02 07:20:32 51°17.583 2°52.408 351.5 12.3 343 9.3
2011-08-02 07:20:37 51°17.6 2°52.4 350.7 12.3 343 9.1
2011-08-02 07:20:43 51°17.619 2°52.39 350.5 12.3 342 9.3
2011-08-02 07:20:47 51°17.632 2°52.384 349.9 12.3 342 9.3
2011-08-02 07:20:52 51°17.648 2°52.375 349.8 12.3 342 9.1
2011-08-02 07:20:57 51°17.664 2°52.367 349.7 12.3 342 9.2
2011-08-02 07:21:02 51°17.681 2°52.359 349.9 12.2 343 9.2
2011-08-02 07:21:07 51°17.697 2°52.351 350.5 12.2 343 9.2
2011-08-02 07:21:12 51°17.713 2°52.344 350.8 12.2 344 9.2
2011-08-02 07:21:17 51°17.729 2°52.337 351.4 12.2 344 9.2
2011-08-02 07:21:22 51°17.746 2°52.329 351.7 12.2 344 9.2
2011-08-02 07:21:27 51°17.762 2°52.322 351.7 12.2 344 9.2
2011-08-02 07:21:32 51°17.778 2°52.315 351.6 12.2 344 9.2
2011-08-02 07:21:38 51°17.798 2°52.305 351.4 12.2 344 9
2011-08-02 07:21:42 51°17.811 2°52.3 351.4 12.2 344 9.3
2011-08-02 07:21:47 51°17.827 2°52.292 351.4 12.3 344 9.3
2011-08-02 07:21:52 51°17.843 2°52.285 351.6 12.2 345 9.3
2011-08-02 07:21:58 51°17.863 2°52.277 352 12.2 345 9.4
2011-08-02 07:22:02 51°17.876 2°52.271 352.4 12.3 345 9.5
2011-08-02 07:22:07 51°17.893 2°52.264 352.8 12.3 346 9.5
2011-08-02 07:22:12 51°17.909 2°52.257 352.9 12.3 346 9.8
2011-08-02 07:22:18 51°17.929 2°52.249 352.9 12.3 346 9.8
2011-08-02 07:22:22 51°17.942 2°52.244 352.9 12.3 346 9.8
2011-08-02 07:22:27 51°17.959 2°52.237 352.9 12.3 345 9.9
2011-08-02 07:22:32 51°17.976 2°52.23 352.8 12.3 346 10
2011-08-02 07:22:37 51°17.992 2°52.224 352.8 12.3 346 9.9
2011-08-02 07:22:42 51°18.009 2°52.217 352.9 12.3 347 9.9
2011-08-02 07:22:47 51°18.025 2°52.211 353.5 12.3 347 9.9
2011-08-02 07:22:52 51°18.042 2°52.205 353.9 12.3 347 10.1
2011-08-02 07:22:57 51°18.059 2°52.199 354.2 12.3 347 10
2011-08-02 07:23:02 51°18.075 2°52.193 354.6 12.3 348 10
2011-08-02 07:23:07 51°18.092 2°52.188 355.2 12.3 348 10
2011-08-02 07:23:12 51°18.109 2°52.182 355.9 12.3 349 10.2
2011-08-02 07:23:17 51°18.125 2°52.177 356.3 12.3 349 10.2
2011-08-02 07:23:22 51°18.142 2°52.172 356.5 12.3 350 10.2
2011-08-02 07:23:27 51°18.159 2°52.168 357.1 12.2 350 10.2
2011-08-02 07:23:32 51°18.176 2°52.164 357.8 12.2 351 10.3
2011-08-02 07:23:37 51°18.192 2°52.159 358 12.2 351 10
2011-08-02 07:23:42 51°18.209 2°52.155 358 12.2 351 10.2
2011-08-02 07:23:47 51°18.226 2°52.15 357.8 12.2 350 10.1
2011-08-02 07:23:52 51°18.242 2°52.146 357.3 12.2 350 10.3
2011-08-02 07:23:57 51°18.259 2°52.141 357.3 12.2 350 10.2
2011-08-02 07:24:02 51°18.276 2°52.136 357.3 12.2 350 10.2
2011-08-02 07:24:07 51°18.292 2°52.131 357 12.2 349 10.2
2011-08-02 07:24:12 51°18.309 2°52.126 356.7 12.2 350 10.2
2011-08-02 07:24:17 51°18.326 2°52.122 357.1 12.2 351 10.2
2011-08-02 07:24:22 51°18.342 2°52.118 358.6 12.2 352 10.3
2011-08-02 07:24:27 51°18.359 2°52.114 358.8 12.2 351 10.3
2011-08-02 07:24:32 51°18.376 2°52.11 359 12.1 353 10.1
2011-08-02 07:24:37 51°18.393 2°52.107 359.4 12.2 353 10.4
2011-08-02 07:24:42 51°18.41 2°52.104 359.8 12.2 353 10.3
2011-08-02 07:24:47 51°18.426 2°52.1 359.5 12.2 352 10.4
2011-08-02 07:24:52 51°18.443 2°52.096 358.9 12.2 351 10.5
2011-08-02 07:24:57 51°18.46 2°52.091 357.9 12.3 349 10.5
2011-08-02 07:25:02 51°18.477 2°52.086 356.8 12.3 349 10.6
2011-08-02 07:25:07 51°18.493 2°52.08 356.6 12.3 349 10.5
2011-08-02 07:25:12 51°18.51 2°52.076 357 12.3 350 10.6
2011-08-02 07:25:17 51°18.527 2°52.072 357.9 12.3 351 10.5
2011-08-02 07:25:22 51°18.544 2°52.067 358.2 12.3 351 10.7
2011-08-02 07:25:27 51°18.561 2°52.063 359 12.3 352 10.9
2011-08-02 07:25:32 51°18.577 2°52.059 359 12.3 351 10.9
2011-08-02 07:25:37 51°18.594 2°52.055 358.8 12.3 350 11
2011-08-02 07:25:42 51°18.611 2°52.05 358.2 12.2 349 11.1
2011-08-02 07:25:47 51°18.628 2°52.044 356.4 12.3 347 11.1
2011-08-02 07:25:52 51°18.644 2°52.038 355 12.4 347 11.2
2011-08-02 07:25:57 51°18.661 2°52.031 354.3 12.4 345 11.3
2011-08-02 07:26:02 51°18.678 2°52.023 352.9 12.4 343 11.5
2011-08-02 07:26:07 51°18.694 2°52.014 350.7 12.4 341 11.5
2011-08-02 07:26:12 51°18.71 2°52.005 349.1 12.4 341 11.7
2011-08-02 07:26:17 51°18.726 2°51.995 348.2 12.5 340 11.7
2011-08-02 07:26:22 51°18.743 2°51.986 347.5 12.5 340 11.9
2011-08-02 07:26:27 51°18.759 2°51.976 347 12.5 338 11.9
2011-08-02 07:26:32 51°18.775 2°51.966 346.3 12.5 339 12.1
2011-08-02 07:26:37 51°18.791 2°51.955 346.3 12.5 338 12.2
2011-08-02 07:26:42 51°18.807 2°51.945 346.3 12.5 339 12.2
2011-08-02 07:26:47 51°18.823 2°51.936 346.9 12.5 339 12.4
2011-08-02 07:26:52 51°18.84 2°51.926 347.7 12.5 340 12.4
2011-08-02 07:26:57 51°18.856 2°51.917 348.1 12.5 340 12.4
2011-08-02 07:27:02 51°18.872 2°51.908 348.1 12.5 341 12.6
2011-08-02 07:27:07 51°18.889 2°51.899 348.7 12.5 342 12.7
2011-08-02 07:27:12 51°18.905 2°51.891 350 12.5 343 12.6
2011-08-02 07:27:17 51°18.922 2°51.883 351.2 12.4 344 12.8
2011-08-02 07:27:22 51°18.938 2°51.876 352.3 12.4 345 12.8
2011-08-02 07:27:27 51°18.955 2°51.869 353.4 12.4 346 12.9
2011-08-02 07:27:32 51°18.972 2°51.863 353.8 12.4 346 13
2011-08-02 07:27:37 51°18.988 2°51.856 354.3 12.4 346 13.1
2011-08-02 07:27:42 51°19.005 2°51.85 354.7 12.4 346 13.3
2011-08-02 07:27:47 51°19.022 2°51.843 354.6 12.4 346 13.6
2011-08-02 07:27:52 51°19.038 2°51.836 354 12.5 345 13.5
2011-08-02 07:27:57 51°19.055 2°51.828 353.4 12.4 344 13.6
2011-08-02 07:28:02 51°19.071 2°51.82 352.2 12.5 342 13.7
2011-08-02 07:28:07 51°19.088 2°51.811 350.9 12.5 342 13.6
2011-08-02 07:28:12 51°19.104 2°51.802 349.9 12.5 340 13.7
2011-08-02 07:28:17 51°19.121 2°51.792 348.8 12.5 340 13.7
2011-08-02 07:28:22 51°19.137 2°51.783 348.3 12.6 339 13.7
2011-08-02 07:28:27 51°19.153 2°51.773 347.7 12.5 339 13.9
2011-08-02 07:28:32 51°19.17 2°51.763 347.6 12.6 340 14
2011-08-02 07:28:37 51°19.186 2°51.753 348 12.5 340 13.9
2011-08-02 07:28:42 51°19.202 2°51.744 348.5 12.5 340 14
2011-08-02 07:28:47 51°19.219 2°51.735 348.8 12.5 340 14.2
2011-08-02 07:28:52 51°19.235 2°51.726 349.2 12.5 341 14.2
2011-08-02 07:28:57 51°19.251 2°51.716 349.2 12.5 340 14.3
2011-08-02 07:29:02 51°19.268 2°51.707 349.1 12.6 340 14.4
2011-08-02 07:29:07 51°19.284 2°51.697 348.5 12.6 340 14.4
2011-08-02 07:29:12 51°19.3 2°51.688 348.4 12.5 340 14.3
2011-08-02 07:29:17 51°19.317 2°51.678 348.5 12.6 340 14.4
2011-08-02 07:29:22 51°19.333 2°51.669 348.9 12.5 341 14.4
2011-08-02 07:29:27 51°19.35 2°51.66 349.4 12.5 341 14.4
2011-08-02 07:29:32 51°19.366 2°51.652 349.7 12.5 342 14.4
2011-08-02 07:29:37 51°19.383 2°51.643 350 12.5 342 14.4
2011-08-02 07:29:42 51°19.399 2°51.635 350.2 12.5 342 14.4
2011-08-02 07:29:47 51°19.416 2°51.626 350.4 12.5 342 14.4
2011-08-02 07:29:52 51°19.433 2°51.618 350.3 12.5 342 14.4
2011-08-02 07:29:57 51°19.449 2°51.609 350.1 12.5 342 14.4
2011-08-02 07:30:02 51°19.465 2°51.6 349.9 12.5 341 14.3
2011-08-02 07:30:07 51°19.482 2°51.591 349.7 12.5 341 14.1
2011-08-02 07:30:12 51°19.498 2°51.582 349.6 12.5 341 14.1
2011-08-02 07:30:17 51°19.515 2°51.573 349.4 12.5 341 14.1
2011-08-02 07:30:22 51°19.531 2°51.565 349.3 12.5 342 14
2011-08-02 07:30:27 51°19.547 2°51.556 349.5 12.5 342 14.2
2011-08-02 07:30:32 51°19.564 2°51.548 349.9 12.4 342 14
2011-08-02 07:30:37 51°19.58 2°51.54 350.4 12.4 342 14.1
2011-08-02 07:30:42 51°19.597 2°51.532 350.7 12.4 343 14
2011-08-02 07:30:47 51°19.613 2°51.524 351.2 12.4 344 13.9
2011-08-02 07:30:52 51°19.63 2°51.517 352 12.4 345 13.8
2011-08-02 07:30:57 51°19.646 2°51.511 353.6 12.3 347 14
2011-08-02 07:31:02 51°19.663 2°51.504 354.3 12.3 346 13.8
2011-08-02 07:31:07 51°19.68 2°51.498 355 12.3 348 13.8
2011-08-02 07:31:12 51°19.696 2°51.492 355.5 12.4 347 13.6
2011-08-02 07:31:17 51°19.713 2°51.487 355.7 12.3 348 13.7
2011-08-02 07:31:22 51°19.73 2°51.481 355.7 12.3 347 13.7
2011-08-02 07:31:27 51°19.746 2°51.474 355.3 12.4 347 13.6
2011-08-02 07:31:32 51°19.763 2°51.468 354.7 12.4 346 13.5
2011-08-02 07:31:37 51°19.78 2°51.461 354.4 12.4 346 13.5
2011-08-02 07:31:42 51°19.796 2°51.454 354.3 12.3 345 13.6
2011-08-02 07:31:47 51°19.813 2°51.447 353.4 12.4 344 13.4
2011-08-02 07:31:52 51°19.829 2°51.439 352.5 12.4 344 13.4
2011-08-02 07:31:57 51°19.846 2°51.431 351.9 12.4 343 13.3
2011-08-02 07:32:02 51°19.862 2°51.422 350.9 12.4 342 13.2
2011-08-02 07:32:07 51°19.879 2°51.414 350.2 12.4 342 12.9
2011-08-02 07:32:12 51°19.895 2°51.405 349.4 12.5 341 13
2011-08-02 07:32:17 51°19.911 2°51.395 349.1 12.5 340 12.7
2011-08-02 07:32:22 51°19.927 2°51.386 348.6 12.5 340 12.7
2011-08-02 07:32:27 51°19.944 2°51.377 348.6 12.5 340 12.5
2011-08-02 07:32:32 51°19.96 2°51.368 348.5 12.5 340 12.4
2011-08-02 07:32:37 51°19.977 2°51.359 348.5 12.5 341 12.3
2011-08-02 07:32:42 51°19.993 2°51.35 348.8 12.5 341 12.2
2011-08-02 07:32:47 51°20.009 2°51.341 349 12.5 341 12
2011-08-02 07:32:52 51°20.026 2°51.332 349.2 12.5 342 11.6
2011-08-02 07:32:57 51°20.042 2°51.324 350.6 12.5 343 11.4
2011-08-02 07:33:02 51°20.059 2°51.316 351.3 12.4 344 11
2011-08-02 07:33:07 51°20.075 2°51.309 351.9 12.4 344 11
2011-08-02 07:33:12 51°20.092 2°51.301 352 12.4 343 10.9
2011-08-02 07:33:17 51°20.108 2°51.293 351.6 12.5 343 10.8
2011-08-02 07:33:22 51°20.125 2°51.284 351.5 12.5 343 11
2011-08-02 07:33:27 51°20.141 2°51.276 351.2 12.5 342 11.1
2011-08-02 07:33:32 51°20.158 2°51.267 350.7 12.6 342 11.4
2011-08-02 07:33:37 51°20.174 2°51.258 350.2 12.5 341 11.5
2011-08-02 07:33:42 51°20.191 2°51.249 349.7 12.6 341 11.8
2011-08-02 07:33:47 51°20.207 2°51.24 349.4 12.6 341 11.9
2011-08-02 07:33:52 51°20.224 2°51.23 349.2 12.7 341 12.2
2011-08-02 07:33:57 51°20.24 2°51.221 349.2 12.6 341 12.3
2011-08-02 07:34:02 51°20.257 2°51.212 349.5 12.6 341 12.6
2011-08-02 07:34:07 51°20.273 2°51.204 350 12.6 342 12.8
2011-08-02 07:34:12 51°20.29 2°51.196 350.8 12.5 343 13.2
2011-08-02 07:34:17 51°20.307 2°51.188 351.4 12.5 344 13.3
2011-08-02 07:34:22 51°20.323 2°51.181 352.2 12.5 344 13.6
2011-08-02 07:34:27 51°20.34 2°51.174 352.9 12.5 345 13.8
2011-08-02 07:34:32 51°20.357 2°51.167 353.8 12.5 346 14
2011-08-02 07:34:37 51°20.374 2°51.16 354.3 12.5 346 14.2
2011-08-02 07:34:42 51°20.391 2°51.153 354.3 12.5 346 14.3
2011-08-02 07:34:47 51°20.408 2°51.146 353.7 12.6 345 14.7
2011-08-02 07:34:52 51°20.424 2°51.138 353.2 12.5 345 14.8
2011-08-02 07:34:57 51°20.441 2°51.131 352.8 12.5 344 14.9
2011-08-02 07:35:02 51°20.457 2°51.123 352.2 12.5 343 14.9
2011-08-02 07:35:07 51°20.474 2°51.114 351.7 12.6 343 15
2011-08-02 07:35:12 51°20.491 2°51.106 351.3 12.6 342 15
2011-08-02 07:35:17 51°20.507 2°51.097 350.6 12.6 342 15
2011-08-02 07:35:22 51°20.524 2°51.089 350.5 12.5 342 15.3
2011-08-02 07:35:27 51°20.54 2°51.08 349.9 12.6 341 15.1
2011-08-02 07:35:32 51°20.557 2°51.071 349.8 12.6 341 15.2
2011-08-02 07:35:37 51°20.573 2°51.062 349.5 12.6 340 15.1
2011-08-02 07:35:42 51°20.59 2°51.052 349.1 12.6 340 15.3
2011-08-02 07:35:47 51°20.606 2°51.042 349 12.6 340 15.5
2011-08-02 07:35:52 51°20.622 2°51.033 349 12.6 340 15.5
2011-08-02 07:35:57 51°20.639 2°51.024 348.8 12.5 341 15.6
2011-08-02 07:36:02 51°20.655 2°51.015 349.2 12.5 341 15.6
2011-08-02 07:36:07 51°20.672 2°51.006 349.9 12.5 342 16.1
2011-08-02 07:36:12 51°20.688 2°50.998 350.5 12.5 343 16.3
2011-08-02 07:36:17 51°20.705 2°50.99 351.3 12.5 343 16.5
2011-08-02 07:36:22 51°20.721 2°50.982 352.1 12.5 344 16.5
2011-08-02 07:36:27 51°20.738 2°50.975 352.6 12.4 344 16.9
2011-08-02 07:36:32 51°20.755 2°50.967 352.9 12.5 345 17.2
2011-08-02 07:36:37 51°20.771 2°50.96 353.6 12.4 345 17.4
2011-08-02 07:36:42 51°20.788 2°50.953 353.8 12.4 345 17.7
2011-08-02 07:36:47 51°20.805 2°50.947 354.1 12.4 346 17.9
2011-08-02 07:36:52 51°20.822 2°50.94 354.3 12.4 345 18.1
2011-08-02 07:36:57 51°20.838 2°50.933 354.2 12.5 346 18.4
2011-08-02 07:37:02 51°20.855 2°50.927 354.4 12.5 347 18.6
2011-08-02 07:37:07 51°20.872 2°50.92 354.9 12.5 346 18.8
2011-08-02 07:37:12 51°20.889 2°50.914 354.3 12.5 346 19.1
2011-08-02 07:37:17 51°20.906 2°50.907 354.1 12.5 345 19.3
2011-08-02 07:37:22 51°20.922 2°50.899 353.2 12.5 344 19.5
2011-08-02 07:37:27 51°20.939 2°50.892 352.4 12.5 344 19.8
2011-08-02 07:37:32 51°20.956 2°50.883 351.7 12.6 343 20
2011-08-02 07:37:37 51°20.973 2°50.875 351 12.6 342 20.2
2011-08-02 07:37:42 51°20.989 2°50.866 350.4 12.7 341 20.5
2011-08-02 07:37:47 51°21.006 2°50.857 349.5 12.7 341 20.7
2011-08-02 07:37:52 51°21.022 2°50.847 348.9 12.7 340 20.8
2011-08-02 07:37:57 51°21.039 2°50.838 348.3 12.7 340 21
2011-08-02 07:38:02 51°21.055 2°50.828 348.2 12.7 340 21.3
2011-08-02 07:38:07 51°21.072 2°50.819 348.6 12.7 340 21.5
2011-08-02 07:38:12 51°21.089 2°50.81 348.9 12.7 341 21.6
2011-08-02 07:38:17 51°21.105 2°50.801 349.4 12.7 341 21.8
2011-08-02 07:38:22 51°21.122 2°50.792 349.6 12.7 341 21.7
2011-08-02 07:38:27 51°21.138 2°50.783 349.9 12.7 341 22
2011-08-02 07:38:32 51°21.155 2°50.774 349.9 12.7 342 22.1
2011-08-02 07:38:37 51°21.172 2°50.765 350.2 12.8 341 22.1
2011-08-02 07:38:42 51°21.189 2°50.756 350.2 12.7 342 22.2
2011-08-02 07:38:47 51°21.206 2°50.747 350.5 12.7 342 22.3
2011-08-02 07:38:52 51°21.222 2°50.738 350.5 12.7 342 22.2
2011-08-02 07:38:57 51°21.239 2°50.729 350.8 12.8 342 22.1
2011-08-02 07:39:02 51°21.256 2°50.721 351.4 12.7 344 22.1
2011-08-02 07:39:07 51°21.273 2°50.714 353.3 12.7 345 22.3
2011-08-02 07:39:12 51°21.29 2°50.707 354.2 12.7 346 22.1
2011-08-02 07:39:17 51°21.307 2°50.7 354.5 12.7 346 22.2
2011-08-02 07:39:22 51°21.324 2°50.694 355 12.7 346 22.1
2011-08-02 07:39:27 51°21.341 2°50.687 355 12.6 346 22.3
2011-08-02 07:39:32 51°21.358 2°50.68 354.3 12.7 345 22.2
2011-08-02 07:39:37 51°21.375 2°50.672 353.7 12.7 344 22.3
2011-08-02 07:39:42 51°21.392 2°50.664 352.9 12.7 344 22.3
2011-08-02 07:39:47 51°21.409 2°50.657 352.8 12.7 344 22.1
2011-08-02 07:39:52 51°21.425 2°50.649 352.5 12.6 344 22.1
2011-08-02 07:39:57 51°21.442 2°50.641 352.4 12.6 344 22.2
2011-08-02 07:40:02 51°21.459 2°50.633 351.9 12.7 343 22.3
2011-08-02 07:40:07 51°21.476 2°50.624 351.3 12.7 342 22.1
2011-08-02 07:40:12 51°21.493 2°50.615 350.7 12.7 341 22.4
2011-08-02 07:40:17 51°21.51 2°50.606 349.9 12.7 341 22.4
2011-08-02 07:40:22 51°21.526 2°50.596 349.4 12.7 340 22.4
2011-08-02 07:40:27 51°21.543 2°50.587 348.9 12.8 340 22.3
2011-08-02 07:40:32 51°21.559 2°50.577 348.4 12.7 340 22.2
2011-08-02 07:40:37 51°21.576 2°50.568 348.9 12.7 341 22.1
2011-08-02 07:40:42 51°21.593 2°50.559 349.3 12.7 341 22.2
2011-08-02 07:40:47 51°21.609 2°50.55 349.8 12.7 342 22.1
2011-08-02 07:40:52 51°21.626 2°50.541 350.7 12.7 342 22.1
2011-08-02 07:40:57 51°21.643 2°50.534 351.4 12.7 344 22.1
2011-08-02 07:41:02 51°21.66 2°50.526 352.5 12.6 345 22
2011-08-02 07:41:07 51°21.677 2°50.52 353.7 12.6 346 21.9
2011-08-02 07:41:12 51°21.694 2°50.513 354.3 12.6 346 21.7
2011-08-02 07:41:17 51°21.711 2°50.506 354.9 12.5 346 21.7
2011-08-02 07:41:22 51°21.728 2°50.499 354.9 12.6 346 21.5
2011-08-02 07:41:27 51°21.744 2°50.492 354.6 12.6 346 21.3
2011-08-02 07:41:32 51°21.761 2°50.485 354.1 12.5 345 21.5
2011-08-02 07:41:37 51°21.778 2°50.478 353.6 12.5 345 21.5
2011-08-02 07:41:42 51°21.795 2°50.47 353.3 12.6 344 21.5
2011-08-02 07:41:47 51°21.812 2°50.462 352.7 12.6 343 21.3
2011-08-02 07:41:52 51°21.828 2°50.454 351.7 12.6 342 21.2
2011-08-02 07:41:57 51°21.845 2°50.445 350.6 12.7 341 21.2
2011-08-02 07:42:02 51°21.862 2°50.435 349.6 12.7 341 21.2
2011-08-02 07:42:07 51°21.878 2°50.426 349.2 12.7 341 21.3
2011-08-02 07:42:12 51°21.895 2°50.416 348.8 12.7 340 21.3
2011-08-02 07:42:17 51°21.912 2°50.406 348.3 12.8 339 21.4
2011-08-02 07:42:22 51°21.928 2°50.396 348.2 12.7 339 21.3
2011-08-02 07:42:27 51°21.945 2°50.386 348.1 12.7 340 21.5
2011-08-02 07:42:32 51°21.961 2°50.377 348.4 12.7 340 21.1
2011-08-02 07:42:37 51°21.978 2°50.367 348.9 12.7 341 21.2
2011-08-02 07:42:42 51°21.995 2°50.359 349.6 12.7 342 21.1
2011-08-02 07:42:47 51°22.011 2°50.35 350 12.7 342 21.2
2011-08-02 07:42:52 51°22.028 2°50.342 351 12.7 344 21.6
2011-08-02 07:42:57 51°22.045 2°50.335 352.3 12.7 345 21.6
2011-08-02 07:43:02 51°22.062 2°50.328 353.5 12.6 345 21.6
2011-08-02 07:43:07 51°22.079 2°50.321 353.7 12.7 345 21.6
2011-08-02 07:43:12 51°22.096 2°50.314 354.2 12.6 346 21.6
2011-08-02 07:43:17 51°22.113 2°50.307 354.8 12.6 346 21.7
2011-08-02 07:43:22 51°22.13 2°50.301 355 12.7 346 21.7
2011-08-02 07:43:27 51°22.147 2°50.294 355 12.6 346 21.8
2011-08-02 07:43:32 51°22.164 2°50.287 354.5 12.7 346 21.8
2011-08-02 07:43:37 51°22.181 2°50.28 354.3 12.7 346 22